Regional Weather Roundup
Issued by NWS Goodland, KS

Home | Current Version | Previous Version | Graphics & Text | Print | Product List | Glossary Off
Versions: 1 2 3 4 5 6 7 8 9 10 11 12 13 14 15 16 17 18 19 20 21 22 23 24 25 26 27 28 29 30 31 32 33 34 35 36 37 38 39 40 41 42 43 44 45 46 47 48 49 50

000
ASUS43 KGLD 290159
RWRGLD

GOODLAND FORECAST AREA HOURLY WEATHER ROUNDUP
NATIONAL WEATHER SERVICE GOODLAND KS
800 PM MDT THU JUL 28 2016

...OFFICIAL OBSERVATIONS...

CITY           SKY/WX    TMP DP  RH WIND       PRES   REMARKS
GOODLAND KS    MOCLDY    71  63  75 NE7       30.12R
HILL CITY KS   PTCLDY    71  62  73 N6        30.03R
IMPERIAL NEB   PTCLDY    70  62  76 E5        30.13R
MCCOOK NEB     CLEAR     68  61  78 N6        30.08S
AKRON CO       MOCLDY    68  60  75 S12       30.17F
BURLINGTON CO  CLEAR     71  61  70 NE13      30.14R
LIMON CO       MOCLDY    71  61  70 NE22      30.19R
$$

...UNOFFICIAL OBSERVATIONS...

CITY           SKY/WX    TMP DP  RH WIND       PRES   REMARKS
LENORA KS        N/A     68  32  26 MISG        N/A
NORTON KS      PTCLDY    68  61  77 N9        30.05R
SHARON SPRINGS   N/A     73  64  73 NE12        N/A
KIT CARSON CO    N/A     81  60  49 MISG        N/A
$$




USA.gov is the U.S. government's official web portal to all federal, state and local government web resources and services.